1393372832103,1.21293
1393372892103,1.21794
1393372952103,1.21303
1393373012103,1.21623
1393373072103,1.21486
1393373132103,1.21008
1393373192103,1.21542
1393373252103,1.20000
1393373312103,1.20869
1393373372103,1.20625
1393373432103,1.20307
1393373492103,1.19571
1393373552103,1.20075
1393373612103,1.20345
1393373672103,1.20972
1393373732103,1.19327
1393373792103,1.18239
1393373852103,1.19772
1393373912103,1.18517
1393373972103,1.18048
1393374032103,1.18845
1393374092103,1.19114
1393374152103,1.18886
1393374212103,1.19695
1393374272103,1.19387
1393374332103,1.18174
1393374392103,1.18808
1393374452103,1.19392
1393374512103,1.19216
1393374572103,1.19086
1393374632103,1.20252
1393374692103,1.20054
1393374752103,1.19667
1393374812103,1.19896
1393374872103,1.19427
1393374932103,1.20709
1393374992103,1.20833
1393375052103,1.20213
1393375112103,1.21097
1393375172103,1.21566
1393375232103,1.21403
1393375292103,1.21149
1393375352103,1.21990
1393375412103,1.21127
1393375472103,1.20715
1393375532103,1.20181
1393375592103,1.19224
1393375652103,1.20885
1393375712103,1.20152
1393375772103,1.20377
1393375832103,1.19884
1393375892103,1.19800
1393375952103,1.19446
1393376012103,1.20176
1393376072103,1.19880
1393376132103,1.19557
1393376192103,1.19020
1393376252103,1.18650
1393376312103,1.18821
1393376372103,1.18632
1393376432113,1.19378
1393376492113,1.18508
1393376552113,1.17569
1393376612113,1.18411
1393376672113,1.18498
1393376732113,1.18019
1393376792113,1.18264
1393376852113,1.17125
1393376912113,1.17681
1393376972113,1.17951
1393377032113,1.17862
1393377092113,1.16911
1393377152113,1.16876
1393377212113,1.18002
1393377272113,1.18129
1393377332113,1.17618
1393377392113,1.17632
1393377452113,1.17106
1393377512113,1.18268
1393377572113,1.18361
1393377632113,1.17690
1393377692113,1.18328
1393377752113,1.17453
1393377812113,1.17733
1393377872113,1.18136
1393377932113,1.17929
1393377992113,1.17674
1393378052113,1.17805
1393378112113,1.18027
1393378172113,1.18536
1393378232113,1.18634
1393378292113,1.17257
1393378352113,1.17293
1393378412113,1.17707
1393378472113,1.17176
1393378532113,1.17118
1393378592113,1.17164
1393378652113,1.17439
1393378712113,1.16390
1393378772113,1.17178
1393378832113,1.16310
1393378892113,1.16304
1393378952113,1.17200
1393379012113,1.15850
1393379072113,1.16317
1393379132113,1.17253
1393379192113,1.16299
1393379252113,1.16543
1393379312113,1.15651
1393379372113,1.16679
1393379432113,1.15353
1393379492113,1.15181
1393379552113,1.15908
1393379612113,1.16422
1393379672113,1.15778
1393379732113,1.17081
1393379792113,1.16186
1393379852113,1.15861
1393379912113,1.16108
1393379972113,1.16803
1393380032133,1.15522
1393380092133,1.15847
1393380152133,1.15630
1393380212133,1.15474
1393380272133,1.16244
1393380332133,1.14697
1393380392133,1.16737
1393380452133,1.15528
1393380512133,1.16671
1393380572133,1.16633
1393380632133,1.16336
1393380692133,1.16047
1393380752133,1.16637
1393380812133,1.16297
1393380872133,1.17221
1393380932133,1.18131
1393380992133,1.16699
1393381052133,1.17749
1393381112133,1.16823
1393381172133,1.17264
1393381232133,1.18239
1393381292133,1.18966
1393381352133,1.18073
1393381412133,1.17871
1393381472133,1.19704
1393381532133,1.18564
1393381592133,1.18752
1393381652133,1.18500
1393381712133,1.19358
1393381772133,1.18723
1393381832133,1.18207
1393381892133,1.19237
1393381952133,1.18916
1393382012133,1.19058
1393382072133,1.19499
1393382132133,1.19451
1393382192133,1.19619
1393382252133,1.18754
1393382312133,1.18942
1393382372133,1.19468
1393382432133,1.18681
1393382492133,1.18843
1393382552133,1.19051
1393382612133,1.19290
1393382672133,1.19171
1393382732133,1.20723
1393382792133,1.20089
1393382852133,1.19471
1393382912133,1.20322
1393382972133,1.20345
1393383032133,1.20296
1393383092133,1.20395
1393383152133,1.20325
1393383212133,1.20574
1393383272133,1.21469
1393383332133,1.21790
1393383392133,1.20992
1393383452133,1.21306
1393383512133,1.21565
1393383572133,1.21439
1393383632145,1.21367
1393383692145,1.20800
1393383752145,1.22164
1393383812145,1.20624
1393383872145,1.20757
1393383932145,1.21165
1393383992145,1.21282
1393384052145,1.20675
1393384112145,1.20845
1393384172145,1.20559
1393384232145,1.20644
1393384292145,1.20398
1393384352145,1.20862
1393384412145,1.21949
1393384472145,1.20508
1393384532145,1.20120
1393384592145,1.20859
1393384652145,1.21015
1393384712145,1.20564
1393384772145,1.21058
1393384832145,1.20830
1393384892145,1.20770
1393384952145,1.20503
1393385012145,1.21086
1393385072145,1.20444
1393385132145,1.19781
1393385192145,1.20828
1393385252145,1.22237
1393385312145,1.21039
1393385372145,1.21915
1393385432145,1.22100
1393385492145,1.23342
1393385552145,1.22661
1393385612145,1.22455
1393385672145,1.23504
1393385732145,1.22711
1393385792145,1.22372
1393385852145,1.22228
1393385912145,1.22694
1393385972145,1.23588
1393386032145,1.24554
1393386092145,1.24289
1393386152145,1.24459
1393386212145,1.24519
1393386272145,1.23899
1393386332145,1.24185
1393386392145,1.23838
1393386452145,1.23243
1393386512145,1.23551
1393386572145,1.24231
1393386632145,1.24496
1393386692145,1.25040
1393386752145,1.25739
1393386812145,1.26130
1393386872145,1.27154
1393386932145,1.27799
1393386992145,1.28450
1393387052145,1.27175
1393387112145,1.27882
1393387172145,1.28237
1393387232157,1.27835
1393387292157,1.28125
1393387352157,1.28563
1393387412157,1.27525
1393387472157,1.27492
1393387532157,1.26922
1393387592157,1.26729
1393387652157,1.26255
1393387712157,1.26329
1393387772157,1.26149
1393387832157,1.25326
1393387892157,1.25961
1393387952157,1.26275
1393388012157,1.26394
1393388072157,1.27032
1393388132157,1.25455
1393388192157,1.25578
1393388252157,1.25329
1393388312157,1.24836
1393388372157,1.24806
1393388432157,1.25032
1393388492157,1.24645
1393388552157,1.23554
1393388612157,1.24162
1393388672157,1.23942
1393388732157,1.22726
1393388792157,1.23338
1393388852157,1.23746
1393388912157,1.23382
1393388972157,1.22519
1393389032157,1.23655
1393389092157,1.23758
1393389152157,1.21658
1393389212157,1.22106
1393389272157,1.22073
1393389332157,1.23107
1393389392157,1.21700
1393389452157,1.22356
1393389512157,1.21301
1393389572157,1.22881
1393389632157,1.21745
1393389692157,1.21744
1393389752157,1.22358
1393389812157,1.21179
1393389872157,1.22762
1393389932157,1.22071
1393389992157,1.21521
1393390052157,1.21831
1393390112157,1.21860
1393390172157,1.21510
1393390232157,1.21651
1393390292157,1.21926
1393390352157,1.21633
1393390412157,1.21788
1393390472157,1.20756
1393390532157,1.21853
1393390592157,1.20738
1393390652157,1.22138
1393390712157,1.22301
1393390772157,1.21605
1393390832169,1.21231
1393390892169,1.21591
1393390952169,1.21666
1393391012169,1.21644
1393391072169,1.20747
1393391132169,1.21033
1393391192169,1.20832
1393391252169,1.20812
1393391312169,1.20020
1393391372169,1.20477
1393391432169,1.21056
1393391492169,1.22390
1393392032169,1.20262
1393392092169,1.22003
1393392152169,1.21036
1393392212169,1.21197
1393392272169,1.21026
1393392332169,1.21172
1393392392169,1.21000
1393392452169,1.20811
1393392512169,1.21368
1393392572169,1.19916
1393392632169,1.20366
1393392692169,1.21424
1393392752169,1.20080
1393392812169,1.21323
1393392872169,1.21458
1393392932169,1.20991
1393392992169,1.21357
1393393052169,1.21748
1393393112169,1.22429
1393393172169,1.21673
1393393232169,1.22008
1393393292169,1.21268
1393393352169,1.21350
1393393412169,1.21623
1393393472169,1.22453
1393393532169,1.21596
1393393592169,1.22016
1393393652169,1.21965
1393393712169,1.21384
1393393772169,1.21501
1393393832169,1.21693
1393393892169,1.22188
1393393952169,1.20976
1393394012169,1.21042
1393394072169,1.21514
1393394132169,1.21706
1393394192169,1.22184
1393394252169,1.21846
1393394312169,1.21279
1393394372169,1.22407
1393394432181,1.20271
1393394492181,1.20905
1393394552181,1.20741
1393394612181,1.21041
1393394672181,1.21109
1393394732181,1.19618
1393394792181,1.21778
1393394852181,1.21108
1393394912181,1.21732
1393394972181,1.20898
1393395032181,1.20523
1393395092181,1.20466
1393395152181,1.20485
1393395212181,1.20445
1393395272181,1.20224
1393395332181,1.19719
1393395392181,1.19164
1393395452181,1.20030
1393395512181,1.20272
1393395572181,1.19969
1393395632181,1.19231
1393395692181,1.19867
1393395752181,1.20613
1393395812181,1.19169
1393395872181,1.19890
1393395932181,1.20750
1393395992181,1.20675
1393396052181,1.19939
1393396112181,1.20562
1393396172181,1.18881
1393396232181,1.19884
1393396292181,1.19289
1393396352181,1.19564
1393396412181,1.20571
1393396472181,1.19809
1393396532181,1.19498
1393396592181,1.19711
1393396652181,1.19850
1393396712181,1.19273
1393396772181,1.19833
1393396832181,1.19557
1393396892181,1.19785
1393396952181,1.19386
1393397012181,1.19082
1393397072181,1.18357
1393397132181,1.18995
1393397192181,1.18984
1393397252181,1.19384
1393397312181,1.18504
1393397372181,1.18887
1393397432181,1.18286
1393397492181,1.19234
1393397552181,1.18870
1393397612181,1.19548
1393397672181,1.19445
1393397732181,1.19297
1393397792181,1.19693
1393397852181,1.19513
1393397912181,1.19512
1393397972181,1.19149
1393398032193,1.18997
1393398092193,1.19305
1393398152193,1.19291
1393398212193,1.19077
1393398272193,1.19246
1393398332193,1.19707
1393398392193,1.19879
1393398452193,1.19030
1393398512193,1.19670
1393398572193,1.18787
1393398632193,1.20610
1393399772193,1.18111
1393399832193,1.17229
1393399892193,1.18161
1393399952193,1.18570
1393400012193,1.18056
1393400072193,1.17150
1393400132193,1.18419
1393400192193,1.18678
1393400252193,1.18372
1393400312193,1.18344
1393400372193,1.18500
1393400432193,1.19220
1393400492193,1.18750
1393400552193,1.19313
1393400612193,1.18578
1393400672193,1.19114
1393400732193,1.19154
1393400792193,1.18611
1393400852193,1.19659
1393400912193,1.18958
1393400972193,1.18521
1393401032193,1.18811
1393401092193,1.18791
1393401152193,1.20895
1393401212193,1.17817
1393401272193,1.18308
1393401332193,1.18161
1393401392193,1.18069
1393401452193,1.18723
1393401512193,1.18066
1393401572193,1.17487
1393401632205,1.18807
1393401692205,1.17980
1393401752205,1.18142
1393401812205,1.19184
1393401872205,1.18529
1393401932205,1.18940
1393401992205,1.18163
1393402052205,1.18335
1393402112205,1.18435
1393402172205,1.18525
1393402232205,1.18155
1393402292205,1.18620
1393402352205,1.18266
1393402412205,1.18221
1393402472205,1.18754
1393402532205,1.18368
1393402592205,1.18007
1393402652205,1.18623
1393402712205,1.18498
1393402772205,1.18695
1393402832205,1.20053
1393402892205,1.18637
1393402952205,1.19003
1393403012205,1.18061
1393403072205,1.18920
1393403132205,1.18911
1393403192205,1.18731
1393403252205,1.18549
1393403312205,1.19555
1393403372205,1.18722
1393403432205,1.17811
1393403492205,1.17467
1393403552205,1.17827
1393403612205,1.18924
1393403672205,1.18137
1393403732205,1.17536
1393403792205,1.17955
1393403852205,1.17881
1393403912205,1.18208
1393403972205,1.17463
1393404032205,1.18063
1393404092205,1.16999
1393404152205,1.17511
1393404212205,1.17850
1393404272205,1.17879
1393404332205,1.16521
1393404392205,1.17406
1393404452205,1.17351
1393404512205,1.16793
1393404572205,1.17421
1393404632205,1.17594
1393404692205,1.17177
1393404752205,1.16734
1393404812205,1.17678
1393404872205,1.17131
1393404932205,1.17188
1393404992205,1.17822
1393405052205,1.16887
1393405112205,1.17739
1393405172205,1.17129
1393405232217,1.16758
1393405292217,1.17191
1393405352217,1.16730
1393405412217,1.16240
1393405472217,1.16935
1393405532217,1.17589
1393405592217,1.16745
1393405652217,1.15594
1393405712217,1.17204
1393405772217,1.16413
1393405832217,1.17242
1393405892217,1.17600
1393405952217,1.16850
1393406012217,1.16660
1393406072217,1.17363
1393406132217,1.16990
1393406192217,1.17510
1393406252217,1.16788
1393406312217,1.16975
1393406372217,1.17655
1393406432217,1.17861
1393406492217,1.16086
1393406552217,1.17859
1393406612217,1.17916
1393406672217,1.17475
1393406732217,1.17419
1393406792217,1.17736
1393406852217,1.18995
1393406912217,1.19217
1393406972217,1.18465
1393407032217,1.17997
1393407092217,1.19078
1393407152217,1.18859
1393407212217,1.18412
1393407272217,1.17328
1393407332217,1.17621
1393407392217,1.17855
1393407452217,1.17819
1393407512217,1.18357
1393407572217,1.18437
1393407632217,1.17874
1393407692217,1.17497
1393407752217,1.17804
1393407812217,1.17805
1393407872217,1.18591
1393407932217,1.18202
1393407992217,1.18210
1393408052217,1.17732
1393408112217,1.17600
1393408172217,1.17600
1393408232217,1.18704
1393408292217,1.17992
1393408352217,1.17646
1393408412217,1.16999
1393408472217,1.18105
1393408532217,1.18024
1393408592217,1.17614
1393408652217,1.17988
1393408712217,1.18376
1393408772217,1.17807
1393408832229,1.17559
1393408892229,1.18064
1393408952229,1.17785
1393409012229,1.18561
1393409072229,1.18629
1393409132229,1.18322
1393409192229,1.19634
1393409252229,1.19214
1393409312229,1.18657
1393409372229,1.19462
1393409432229,1.20293
1393409492229,1.19535
1393409552229,1.19713
1393409612229,1.19112
1393409672229,1.18682
1393409732229,1.19251
1393409792229,1.19119
1393409852229,1.18288
1393409912229,1.19004
1393409972229,1.18233
1393410032229,1.18207
1393410092229,1.18362
1393410152229,1.18949
1393410212229,1.18673
1393410272229,1.19328
1393410332229,1.19231
1393410392229,1.18854
1393410452229,1.18933
1393410512229,1.19279
1393410572229,1.18558
1393410632229,1.19743
1393410692229,1.18729
1393410752229,1.19197
1393410812229,1.19550
1393410872229,1.19026
1393410932229,1.19669
1393410992229,1.18362
1393411052229,1.18953
1393411112229,1.18826
1393411172229,1.18184
1393411232229,1.19258
1393411292229,1.18324
1393411352229,1.18768
1393411412229,1.18415
1393411472229,1.18496
1393411532229,1.19411
1393411592229,1.18734
1393411652229,1.18282
1393411712229,1.19042
1393411772229,1.19607
1393411832229,1.20479
1393411892229,1.21082
1393411952229,1.21723
1393412012229,1.21870
1393412072229,1.22967
1393412132229,1.23060
1393412192229,1.23217
1393412252229,1.21902
1393412312229,1.22293
1393412372229,1.21317
1393412432241,1.22138
1393412492241,1.21813
1393412552241,1.22276
1393412612241,1.21106
1393412672241,1.21737
1393412732241,1.21195
1393412792241,1.21746
1393412852241,1.20900
1393412912241,1.21778
1393412972241,1.21579
1393413032241,1.21129
1393413092241,1.21217
1393413152241,1.20701
1393413212241,1.20643
1393413272241,1.21451
1393413332241,1.21203
1393413392241,1.20753
1393413452241,1.21820
1393413512241,1.21866
1393413572241,1.21889
1393413632241,1.21642
1393413692241,1.22587
1393413752241,1.21939
1393413812241,1.22084
1393413872241,1.21635
1393413932241,1.22457
1393413992241,1.22054
1393414052241,1.22626
1393414112241,1.22553
1393414172241,1.23091
1393414232241,1.23787
1393414292241,1.23331
1393414352241,1.22778
1393414412241,1.22887
1393414472241,1.24809
1393414532241,1.24250
1393414592241,1.24392
1393414652241,1.24019
1393414712241,1.25101
1393414772241,1.24332
1393414832241,1.24459
1393414892241,1.23825
1393414952241,1.23655
1393415012241,1.24492
1393415072241,1.24536
1393415132241,1.23574
1393415192241,1.24216
1393415252241,1.23286
1393415312241,1.24248
1393415372241,1.22954
1393415432241,1.24123
1393415492241,1.23251
1393415552241,1.22205
1393415612241,1.22807
1393415672241,1.22952
1393415732241,1.22310
1393415792241,1.23380
1393415852241,1.23180
1393415912241,1.22406
1393415972241,1.23990
1393416032253,1.23116
1393416092253,1.22616
1393416152253,1.23058
1393416212253,1.22838
1393416272253,1.23499
1393416332253,1.21821
1393416392253,1.21956
1393416452253,1.22193
1393416512253,1.22409
1393416572253,1.21617
1393416632253,1.21505
1393416692253,1.22495
1393416752253,1.22444
1393416812253,1.21983
1393416872253,1.22614
1393416932253,1.21439
1393416992253,1.21064
1393417052253,1.21101
1393417112253,1.21370
1393417172253,1.20187
1393417232253,1.20629
1393417292253,1.20927
1393417352253,1.20465
1393417412253,1.21435
1393417472253,1.21053
1393417532253,1.20272
1393417592253,1.19823
1393417652253,1.20354
1393417712253,1.21232
1393417772253,1.19701
1393417832253,1.21760
1393417892253,1.21857
1393417952253,1.20184
1393418012253,1.21226
1393418072253,1.20045
1393418132253,1.20770
1393418192253,1.20565
1393418252253,1.19808
1393418312253,1.19644
1393418372253,1.20335
1393418432253,1.18960
1393418492253,1.20864
1393418552253,1.20083
1393418612253,1.19594
1393418672253,1.18878
1393418732253,1.19841
1393418792253,1.19780
1393418852253,1.19802
1393418912253,1.19407
1393418972253,1.18894
1393419032253,1.18964
1393419092253,1.19692
1393419152253,1.19767
1393419212253,1.20626
1393419272253,1.19654
1393419332253,1.19390
1393419392253,1.19051
1393419452253,1.19941
1393419512253,1.19437
1393419572253,1.18412
1393419632265,1.19222
1393419692265,1.18788
1393419752265,1.19153
1393419812265,1.18612
1393419872265,1.19300
1393419932265,1.18386
1393419992265,1.19205
1393420052265,1.18104
1393420112265,1.18761
1393420172265,1.18530
1393420232265,1.19514
1393420292265,1.18636
1393420352265,1.19128
1393420412265,1.18688
1393420472265,1.18666
1393420532265,1.18916
1393420592265,1.18989
1393420652265,1.18824
1393420712265,1.18899
1393420772265,1.18102
1393420832265,1.18957
1393420892265,1.19466
1393420952265,1.19139
1393421012265,1.19136
1393421072265,1.19454
1393421132265,1.17830
1393421192265,1.19597
1393421252265,1.19115
1393421312265,1.18771
1393421372265,1.19734
1393421432265,1.20022
1393421492265,1.18901
1393421552265,1.19190
1393421612265,1.20146
1393421672265,1.19292
1393421732265,1.18895
1393421792265,1.19415
1393421852265,1.19007
1393421912265,1.19072
1393421972265,1.19270
1393422032265,1.19163
1393422092265,1.19448
1393422152265,1.19597
1393422212265,1.19662
1393422272265,1.19849
1393422332265,1.20100
1393422392265,1.19846
1393422452265,1.19004
1393422512265,1.18716
1393422572265,1.19132
1393422632265,1.19144
1393422692265,1.19188
1393422752265,1.18529
1393422812265,1.19193
1393422872265,1.18949
1393422932265,1.19594
1393422992265,1.19792
1393423052265,1.19293
1393423112265,1.19148
1393423172265,1.19250
1393423232277,1.19615
1393423292277,1.19770
1393423352277,1.20162
1393423412277,1.19695
1393423472277,1.20097
1393423532277,1.19835
1393423592277,1.19856
1393423652277,1.19992
1393423712277,1.19452
1393423772277,1.20286
1393423832277,1.20458
1393423892277,1.20944
1393423952277,1.18822
1393424012277,1.20723
1393424072277,1.19837
1393424132277,1.20163
1393424192277,1.20223
1393424252277,1.21084
1393424312277,1.19898
1393424372277,1.20331
1393424432277,1.19653
1393424492277,1.20374
1393424552277,1.19902
1393424612277,1.20516
1393424672277,1.19719
1393424732277,1.20073
1393424792277,1.20415
1393424852277,1.19952
1393424912277,1.19567
1393424972277,1.19903
1393425032277,1.19927
1393425092277,1.20025
1393425152277,1.20475
1393425212277,1.19301
1393425272277,1.20662
1393425332277,1.20633
1393425392277,1.18663
1393425452277,1.19382
1393425512277,1.19830
1393425572277,1.18950
1393425632277,1.20064
1393425692277,1.18783
1393425752277,1.20027
1393425812277,1.19053
1393425872277,1.20246
1393425932277,1.19488
1393425992277,1.19388
1393426052277,1.19478
1393426112277,1.19936
1393426172277,1.21286
1393426232277,1.22436
1393426292277,1.21630
1393426352277,1.22777
1393426412277,1.22525
1393426472277,1.23427
1393426532277,1.24581
1393426592277,1.26477
1393426652277,1.29508
1393426712277,1.30933
1393426772277,1.36921
1393426832289,1.39614
1393426892289,1.45156
1393426952289,1.49397
1393427012289,1.51804
1393427072289,1.49585
1393427132289,1.47942
1393427192289,1.48037
1393427252289,1.47187
1393427312289,1.46813
1393427372289,1.45942
1393427432289,1.45210
1393427492289,1.44765
1393427552289,1.42143
1393427612289,1.40735
1393427672289,1.41133
1393427732289,1.39083
1393427792289,1.40154
1393427852289,1.37984
1393427912289,1.38950
1393427972289,1.39429
1393428032289,1.38977
1393428092289,1.36940
1393428152289,1.36585
1393428212289,1.36038
1393428272289,1.34704
1393428332289,1.34559
1393428392289,1.31983
1393428452289,1.32372
1393428512289,1.30989
1393428572289,1.30876
1393428632289,1.30219
1393428692289,1.29761
1393428752289,1.29563
1393428812289,1.28955
1393428872289,1.29211
1393428932289,1.29081
1393428992289,1.28887
1393429052289,1.28917
1393429112289,1.28198
1393429172289,1.28956
1393429232289,1.28610
1393429292289,1.27427
1393429352289,1.27762
1393429412289,1.28066
1393429472289,1.27405
1393429532289,1.28901
1393429592289,1.27908
1393429652289,1.28891
1393429712289,1.29209
1393429772289,1.28180
1393429832289,1.29348
1393429892289,1.28204
1393429952289,1.28289
1393430012289,1.27850
1393430072289,1.27526
1393430132289,1.28815
1393430192289,1.29000
1393430252289,1.28387
1393430312289,1.28432
1393430372289,1.28348
1393430432300,1.27699
1393430492300,1.28050
1393430552300,1.28572
1393430612300,1.28888
1393430672300,1.27700
1393430732300,1.28014
1393430792300,1.28671
1393430852300,1.28200
1393430912300,1.28137
1393430972300,1.28552
1393431032300,1.28813
1393431092300,1.28222
1393431152300,1.28975
1393431212300,1.28746
1393431272300,1.28431
1393431332300,1.28252
1393431392300,1.28263
1393431452300,1.28335
1393431512300,1.28736
1393431572300,1.28539
1393431632300,1.28212
1393431692300,1.28377
1393431752300,1.28700
1393431812300,1.27620
1393431872300,1.27388
1393431932300,1.28913
1393431992300,1.28078
1393432052300,1.28490
1393432112300,1.29873
1393432172300,1.28561
1393432232300,1.28810
1393432292300,1.27481
1393432352300,1.27578
1393432412300,1.28199
1393432472300,1.27335
1393432532300,1.27168
1393432592300,1.27424
1393432652300,1.27366
1393432712300,1.27322
1393432772300,1.25681
1393432832300,1.26668
1393432892300,1.26093
1393432952300,1.25903
1393433012300,1.26325
1393433072300,1.24591
1393433132300,1.25028
1393433192300,1.25915
1393433252300,1.24216
1393433312300,1.25286
1393433372300,1.25736
1393433432300,1.25359
1393433492300,1.25150
1393433552300,1.24672
1393433612300,1.25001
1393433672300,1.24730
1393433732300,1.23683
1393433792300,1.24188
1393433852300,1.24120
1393433912300,1.24734
1393433972300,1.23695
1393434032321,1.23239
1393434092321,1.23859
1393434152321,1.23448
1393434212321,1.23832
1393434272321,1.23122
1393434332321,1.24114
1393434392321,1.23210
1393434452321,1.24652
1393434512321,1.23476
1393434572321,1.23575
1393434632321,1.23406
1393434692321,1.23075
1393434752321,1.23568
1393434812321,1.23177
1393434872321,1.23217
1393434932321,1.23142
1393434992321,1.23003
1393435052321,1.23401
1393435112321,1.23564
1393435172321,1.23970
1393435232321,1.24190
1393435292321,1.22862
1393435352321,1.23588
1393435412321,1.22799
1393435472321,1.24844
1393435532321,1.23514
1393435592321,1.22861
1393435652321,1.22478
1393435712321,1.22019
1393435772321,1.23004
1393435832321,1.23024
1393435892321,1.23391
1393435952321,1.23221
1393436012321,1.22606
1393436072321,1.23047
1393436132321,1.24241
1393436192321,1.22827
1393436252321,1.23050
1393436312321,1.22771
1393436372321,1.22769
1393436432321,1.22765
1393436492321,1.22627
1393436552321,1.22458
1393436612321,1.22235
1393436672321,1.22831
1393436732321,1.22183
1393436792321,1.22688
1393436852321,1.22790
1393436912321,1.22278
1393436972321,1.22940
1393437032321,1.22908
1393437092321,1.23518
1393437152321,1.24448
1393437212321,1.23034
1393437272321,1.23127
1393437332321,1.22784
1393437392321,1.22721
1393437452321,1.23447
1393437512321,1.22763
1393437572321,1.23170
1393437632333,1.23155
1393437692333,1.22813
1393437752333,1.22826
1393437812333,1.22157
1393437872333,1.22611
1393437932333,1.22635
1393437992333,1.23006
1393438052333,1.23204
1393438112333,1.22451
1393438172333,1.22061
1393438232333,1.22341
1393438292333,1.21911
1393438352333,1.22566
1393438412333,1.22559
1393438472333,1.23059
1393438532333,1.22719
1393438592333,1.22589
1393438652333,1.24096
1393438712333,1.23780
1393438772333,1.23114
1393438832333,1.22413
1393438892333,1.23025
1393438952333,1.22275
1393439012333,1.23038
1393439072333,1.23056
1393439132333,1.22100
1393439192333,1.22135
1393439252333,1.22255
1393439312333,1.21906
1393439372333,1.22077
1393439432333,1.22325
1393439492333,1.21878
1393439552333,1.23125
1393439612333,1.22471
1393439672333,1.23717
1393439732333,1.23322